Location: Lac Lasalle
(46.0398°N, 74.1576°W)
Time: 16:24:53
(UTC-04:00)

ISS - Pass Details

Date: 22 March 2019
Orbit: 408 x 410 km, 51.6° (Epoch: 22 April)

Event Time Altitude Azimuth Distance (km) Brightness Sun altitude
Rises 20:43:02 0° 231° (SW) 2,326 0.5 -16.4°
Reaches altitude 10° 20:45:07 10° 227° (SW) 1,467 -0.6 -16.7°
Maximum altitude 20:48:22 59° 147° (SSE) 476 -3.8 -17.2°
Enters shadow 20:48:44 54° 113° (ESE) 503 -3.8 -17.3°
